Tracking 22879 objects as of 20-Apr-2021
HD Live streaming from Space Station
objects crossing your sky now

USA 122

Track USA 122 now!
10-day predictions
USA 122 is classified as:


NORAD ID: 23862
Int'l Code: 1996-029D
Perigee: 569.1 km
Apogee: 1,656.8 km
Inclination: 63.4 °
Period: 107.4 minutes
Semi major axis: 7483 km
RCS: Unknown
Launch date: May 12, 1996
Source: United States (US)
Launch site: AIR FORCE WESTERN TEST RANGE (AFWTR)
aabbcc
Your satellite tracking list
Your tracking list is empty




NASA's NSSDC Master Catalog

Two Line Element Set (TLE):
1 23862U 96029D   21107.80802578 0.00000100  00000-0  36176-4 0    07
2 23862  63.3536  48.5980 0726707  25.3858 334.6142 13.40922634    00
Source of the keplerian elements: McCants